When you browse on this site, cookies collect data to enhance your experience and personalize the content and advertising you see.
Visit our Privacy Policy to learn more. By continuing to use the site, you agree to this use of cookies and data.
  • In Sweden
  • List of Countries
  • For 7 days
  • Water Temperature
  • Weather Map
  • Weather Widgets
  • user-avatar
    Login

    Hourly Weather Djaipur

    Today, 18 January, Saturday

    Time Temperature Precipitation Wind Pressure Humidity
    00:00 +10°C° 0 mm 2 mps 727 mmHg 79%
    01:00 +10°C° 0 mm 2 mps 727 mmHg 83%
    02:00 +10°C° 0 mm 2 mps 727 mmHg 88%
    03:00 +10°C° 0 mm 2 mps 727 mmHg 89%
    04:00 +10°C° 0 mm 2 mps 727 mmHg 90%
    05:00 +9°C° 0 mm 2 mps 726 mmHg 92%
    06:00 +10°C° 0 mm 2 mps 727 mmHg 90%
    07:00 +12°C° 0 mm 2 mps 728 mmHg 89%
    08:00 +13°C° 0 mm 2 mps 728 mmHg 87%
    09:00 +14°C° 0 mm 2 mps 728 mmHg 76%
    10:00 +16°C° 0 mm 2 mps 729 mmHg 66%
    11:00 +18°C° 0 mm 2 mps 729 mmHg 53%
    12:00 +20°C° 0 mm 1 mps 728 mmHg 48%
    13:00 +21°C° 0 mm 1 mps 728 mmHg 43%
    14:00 +21°C° 0 mm 1 mps 727 mmHg 37%
    15:00 +21°C° 0 mm 1 mps 727 mmHg 39%
    16:00 +20°C° 0 mm 1 mps 727 mmHg 41%
    17:00 +19°C° 0 mm 1 mps 727 mmHg 43%
    18:00 +19°C° 0 mm 1 mps 727 mmHg 43%
    19:00 +18°C° 0 mm 2 mps 728 mmHg 42%
    20:00 +17°C° 0 mm 2 mps 728 mmHg 42%
    21:00 +16°C° 0 mm 2 mps 728 mmHg 45%
    22:00 +15°C° 0 mm 2 mps 728 mmHg 49%
    23:00 +13°C° 0 mm 3 mps 728 mmHg 52%

    Tomorrow, 19 January, Sunday

    Time Temperature Precipitation Wind Pressure Humidity
    00:00 +12°C° 0 mm 3 mps 728 mmHg 59%
    01:00 +11°C° 0 mm 3 mps 728 mmHg 65%
    02:00 +10°C° 0 mm 3 mps 728 mmHg 72%
    03:00 +10°C° 0 mm 3 mps 728 mmHg 73%
    04:00 +10°C° 0 mm 3 mps 727 mmHg 73%
    05:00 +9°C° 0 mm 2 mps 727 mmHg 73%
    06:00 +10°C° 0 mm 2 mps 728 mmHg 70%
    07:00 +12°C° 0 mm 2 mps 729 mmHg 66%
    08:00 +12°C° 0 mm 2 mps 729 mmHg 62%
    09:00 +14°C° 0 mm 1 mps 729 mmHg 57%
    10:00 +16°C° 0 mm 1 mps 729 mmHg 52%
    11:00 +17°C° 0 mm 0 mps 729 mmHg 47%
    12:00 +20°C° 0 mm 1 mps 729 mmHg 43%
    13:00 +20°C° 0 mm 1 mps 728 mmHg 39%
    14:00 +21°C° 0 mm 1 mps 728 mmHg 34%
    15:00 +20°C° 0 mm 1 mps 727 mmHg 37%
    16:00 +20°C° 0 mm 1 mps 727 mmHg 40%
    17:00 +19°C° 0 mm 1 mps 727 mmHg 42%
    18:00 +16°C° 0 mm 2 mps 727 mmHg 42%
    19:00 +15°C° 0 mm 2 mps 728 mmHg 41%
    20:00 +14°C° 0 mm 2 mps 728 mmHg 41%
    21:00 +12°C° 0 mm 3 mps 728 mmHg 40%
    22:00 +12°C° 0 mm 3 mps 728 mmHg 40%
    23:00 +11°C° 0 mm 3 mps 728 mmHg 39%

    Day after tomorrow, 20 January, Monday

    Time Temperature Precipitation Wind Pressure Humidity
    00:00 +10°C° 0 mm 3 mps 728 mmHg 42%
    01:00 +10°C° 0 mm 2 mps 727 mmHg 45%
    02:00 +9°C° 0 mm 2 mps 727 mmHg 48%
    03:00 +9°C° 0 mm 2 mps 727 mmHg 49%
    04:00 +9°C° 0 mm 2 mps 726 mmHg 50%
    05:00 +9°C° 0 mm 1 mps 726 mmHg 51%
    06:00 +10°C° 0 mm 1 mps 727 mmHg 50%
    07:00 +11°C° 0 mm 1 mps 727 mmHg 48%
    08:00 +13°C° 0 mm 1 mps 728 mmHg 47%
    09:00 +14°C° 0 mm 1 mps 728 mmHg 44%
    10:00 +16°C° 0 mm 2 mps 728 mmHg 40%
    11:00 +18°C° 0 mm 2 mps 728 mmHg 37%
    12:00 +19°C° 0 mm 2 mps 727 mmHg 37%
    13:00 +19°C° 0 mm 2 mps 726 mmHg 36%
    14:00 +20°C° 0 mm 2 mps 726 mmHg 35%
    15:00 +20°C° 0 mm 1 mps 726 mmHg 39%
    16:00 +20°C° 0 mm 1 mps 725 mmHg 44%
    17:00 +19°C° 0 mm 1 mps 725 mmHg 48%
    18:00 +18°C° 0 mm 1 mps 726 mmHg 48%
    19:00 +16°C° 0 mm 2 mps 726 mmHg 48%
    20:00 +16°C° 0 mm 2 mps 726 mmHg 48%
    21:00 +14°C° 0 mm 3 mps 726 mmHg 50%
    22:00 +14°C° 0 mm 3 mps 726 mmHg 51%
    23:00 +14°C° 0 mm 3 mps 726 mmHg 52%

    21 January, Tuesday

    Time Temperature Precipitation Wind Pressure Humidity
    00:00 +13°C° 0 mm 3 mps 726 mmHg 53%
    01:00 +13°C° 0 mm 3 mps 726 mmHg 54%
    02:00 +12°C° 0 mm 3 mps 725 mmHg 55%
    03:00 +12°C° 0 mm 3 mps 725 mmHg 57%
    04:00 +11°C° 0 mm 3 mps 725 mmHg 60%
    05:00 +11°C° 0 mm 3 mps 725 mmHg 62%
    06:00 +11°C° 0 mm 3 mps 726 mmHg 61%
    07:00 +12°C° 0 mm 3 mps 726 mmHg 60%
    08:00 +12°C° 0 mm 3 mps 727 mmHg 60%
    09:00 +14°C° 0 mm 4 mps 727 mmHg 54%
    10:00 +18°C° 0 mm 4 mps 728 mmHg 48%
    11:00 +20°C° 0 mm 5 mps 728 mmHg 42%
    12:00 +21°C° 0 mm 4 mps 727 mmHg 40%
    13:00 +22°C° 0 mm 4 mps 726 mmHg 37%
    14:00 +24°C° 0 mm 3 mps 726 mmHg 35%
    15:00 +23°C° 0 mm 2 mps 726 mmHg 39%
    16:00 +21°C° 0 mm 2 mps 726 mmHg 43%
    17:00 +20°C° 0 mm 1 mps 725 mmHg 47%
    18:00 +18°C° 0 mm 2 mps 726 mmHg 50%
    19:00 +17°C° 0 mm 3 mps 727 mmHg 53%
    20:00 +16°C° 0 mm 3 mps 728 mmHg 56%
    21:00 +15°C° 0 mm 4 mps 728 mmHg 60%
    22:00 +14°C° 0 mm 4 mps 728 mmHg 64%
    23:00 +13°C° 0 mm 4 mps 728 mmHg 68%

    22 January, Wednesday

    Time Temperature Precipitation Wind Pressure Humidity
    00:00 +13°C° 0 mm 4 mps 728 mmHg 70%
    01:00 +12°C° 0 mm 3 mps 728 mmHg 72%
    02:00 +12°C° 0 mm 3 mps 728 mmHg 73%
    03:00 +11°C° 0 mm 3 mps 728 mmHg 74%
    04:00 +12°C° 0 mm 2 mps 728 mmHg 75%
    05:00 +10°C° 0 mm 2 mps 728 mmHg 76%
    06:00 +12°C° 0 mm 2 mps 729 mmHg 73%
    07:00 +13°C° 0 mm 2 mps 729 mmHg 69%
    08:00 +14°C° 0 mm 2 mps 730 mmHg 66%
    09:00 +16°C° 0 mm 2 mps 730 mmHg 58%
    10:00 +18°C° 0 mm 2 mps 731 mmHg 51%
    11:00 +20°C° 0 mm 2 mps 731 mmHg 43%
    12:00 +21°C° 0 mm 2 mps 730 mmHg 40%
    13:00 +23°C° 0 mm 2 mps 729 mmHg 37%
    14:00 +24°C° 0 mm 2 mps 729 mmHg 34%
    15:00 +23°C° 0 mm 2 mps 728 mmHg 37%
    16:00 +21°C° 0 mm 2 mps 728 mmHg 40%
    17:00 +20°C° 0 mm 3 mps 728 mmHg 43%
    18:00 +18°C° 0 mm 3 mps 728 mmHg 47%
    19:00 +17°C° 0 mm 3 mps 729 mmHg 52%
    20:00 +14°C° 0 mm 3 mps 729 mmHg 56%
    21:00 +14°C° 0 mm 3 mps 729 mmHg 55%
    22:00 +13°C° 0 mm 3 mps 729 mmHg 55%
    23:00 +12°C° 0 mm 3 mps 729 mmHg 54%

    23 January, Thursday

    Time Temperature Precipitation Wind Pressure Humidity
    00:00 +12°C° 0 mm 3 mps 729 mmHg 54%
    01:00 +11°C° 0 mm 3 mps 729 mmHg 54%
    02:00 +11°C° 0 mm 3 mps 729 mmHg 54%
    03:00 +10°C° 0 mm 3 mps 728 mmHg 56%
    04:00 +10°C° 0 mm 3 mps 728 mmHg 59%
    05:00 +9°C° 0 mm 3 mps 728 mmHg 61%
    06:00 +10°C° 0 mm 3 mps 728 mmHg 60%
    07:00 +10°C° 0 mm 3 mps 729 mmHg 58%
    08:00 +12°C° 0 mm 2 mps 730 mmHg 56%
    09:00 +13°C° 0 mm 3 mps 730 mmHg 47%
    10:00 +16°C° 0 mm 3 mps 730 mmHg 38%
    11:00 +19°C° 0 mm 4 mps 730 mmHg 29%
    12:00 +20°C° 0 mm 4 mps 729 mmHg 26%
    13:00 +21°C° 0 mm 4 mps 728 mmHg 23%
    14:00 +22°C° 0 mm 4 mps 728 mmHg 21%
    15:00 +21°C° 0 mm 4 mps 728 mmHg 24%
    16:00 +19°C° 0 mm 4 mps 727 mmHg 28%
    17:00 +18°C° 0 mm 3 mps 727 mmHg 32%
    18:00 +16°C° 0 mm 3 mps 727 mmHg 34%
    19:00 +13°C° 0 mm 3 mps 728 mmHg 35%
    20:00 +12°C° 0 mm 3 mps 728 mmHg 37%
    21:00 +11°C° 0 mm 3 mps 728 mmHg 37%
    22:00 +11°C° 0 mm 3 mps 728 mmHg 37%
    23:00 +10°C° 0 mm 3 mps 728 mmHg 36%
    Show more